Theta_e
319 318 317 316 318 323 325 327 327 328 328 328 327 329 330 327 316 317 322 327 325 313 314 316 316 315 314 317 317 318 316 319 321 317 317 320 318 319 320 321 322 325 330 330 335
320 318 318 317 316 321 324 326 326 328 329 328 327 323 313 312 315 315 322 321 326 314 313 316 321 323 314 317 316 316 317 321 317 316 316 318 319 318 319 322 326 330 332 335 336
314 320 319 317 316 317 322 324 326 327 328 323 319 313 310 310 311 316 319 319 319 316 311 313 315 314 315 317 317 317 318 315 317 319 319 317 317 317 318 318 322 331 336 337 336
314 314 319 318 316 315 319 323 325 325 327 323 317 311 309 309 312 312 313 318 320 315 317 313 315 315 315 315 316 316 316 317 316 317 319 316 317 316 318 318 319 317 328 335 336
314 314 319 318 317 316 316 321 324 325 326 323 322 313 309 309 312 310 312 314 314 311 314 312 314 315 313 315 315 315 314 316 316 317 318 317 316 316 317 318 319 319 324 326 330
315 313 316 319 317 316 315 320 322 323 325 318 310 309 308 309 311 311 310 312 313 311 310 311 314 314 314 314 314 314 314 314 315 316 317 316 316 317 317 318 320 322 323 324 321
314 314 316 319 317 316 315 319 321 319 322 322 310 308 310 310 311 311 310 311 311 311 310 311 313 314 314 312 313 314 312 313 314 315 315 316 315 315 317 316 322 323 325 326 326
314 313 314 317 317 316 315 318 319 314 316 319 312 309 309 310 310 310 310 309 309 309 310 312 313 314 314 312 313 313 311 312 312 313 313 314 315 314 316 317 316 323 326 327 326
313 313 315 318 317 315 315 316 317 313 311 312 316 309 309 310 310 309 309 310 310 311 313 313 313 313 313 310 310 311 311 313 312 312 311 313 314 314 314 316 315 316 319 325 327
314 313 315 315 316 315 315 316 314 311 311 313 313 312 314 309 310 310 310 310 311 312 312 313 313 310 309 309 309 311 311 312 312 311 311 311 311 311 312 312 312 313 315 318 321
311 315 314 314 316 316 316 313 311 310 311 311 312 312 311 311 309 309 311 311 311 311 309 311 309 310 309 310 311 310 311 311 311 311 312 311 310 309 311 311 311 312 313 314 317
310 314 315 317 317 316 315 310 309 309 312 311 310 310 310 311 310 310 311 311 311 309 309 309 309 309 310 310 312 312 312 310 311 311 311 311 310 309 310 311 312 312 313 313 315
310 315 314 317 317 316 314 310 309 309 309 311 310 309 310 310 310 310 311 312 309 308 308 310 310 311 311 311 311 311 311 309 311 311 311 311 309 311 311 312 313 313 313 314 313
312 315 314 316 316 315 312 309 309 309 310 311 311 310 309 310 310 310 311 312 310 309 308 309 310 311 311 311 311 311 311 311 310 309 308 308 306 306 308 310 309 313 313 314 313
312 314 316 317 316 314 311 309 309 309 309 310 310 310 309 310 310 310 311 311 309 309 308 310 309 310 312 311 311 311 310 310 310 309 309 309 306 305 308 309 308 310 313 313 314
314 314 314 317 316 314 310 310 310 312 311 310 310 311 311 311 310 309 310 310 311 309 308 309 310 310 310 310 310 308 309 309 308 307 308 307 306 306 308 309 308 310 313 313 312
313 313 314 316 315 313 310 310 309 309 309 310 309 310 309 310 309 309 308 307 308 309 308 308 309 308 310 310 309 309 308 308 309 308 309 308 307 308 308 309 308 308 311 312 312
314 314 314 315 314 312 311 309 308 308 310 309 309 309 309 310 309 308 308 309 306 307 308 308 309 308 308 309 309 308 308 309 310 311 308 306 307 309 308 309 311 311 311 311 311
311 314 315 315 313 310 309 310 308 308 310 310 309 310 308 309 310 308 308 309 308 305 307 308 309 308 308 309 310 309 309 309 308 301 310 307 307 308 309 308 309 310 311 311 311
312 314 315 314 313 309 309 309 308 308 309 309 309 308 309 309 309 309 308 308 308 306 308 308 309 309 308 309 309 309 308 310 308 306 308 307 308 308 309 308 306 308 310 311 311
314 314 314 313 310 309 310 309 309 309 310 309 309 309 308 309 309 309 308 309 308 308 307 308 309 310 308 308 308 308 308 309 309 309 309 308 306 305 308 308 306 307 310 311 311
314 311 313 313 310 308 309 308 309 309 310 309 308 309 308 309 309 309 309 309 309 309 307 309 309 310 308 309 310 308 309 308 309 308 307 309 308 308 308 310 308 309 309 310 310
302 307 313 311 309 308 308 308 309 310 309 309 309 310 309 309 310 309 308 309 309 308 309 310 309 308 310 309 310 310 309 308 307 306 308 306 309 307 309 310 311 310 310 310 310
301 305 305 311 309 309 310 308 309 310 310 310 311 310 309 309 309 310 309 309 309 309 309 310 311 308 308 308 309 309 309 308 309 309 308 307 309 310 308 309 310 310 311 311 310
300 301 301 308 308 309 309 308 309 310 311 310 311 310 309 310 310 309 312 309 308 309 309 310 305 308 307 308 308 308 308 308 309 310 308 309 307 308 305 306 309 311 311 311 310
300 300 300 306 308 308 310 309 309 310 311 311 310 310 310 309 309 310 310 309 309 308 308 308 302 304 302 308 309 310 307 309 309 309 307 308 307 306 308 310 309 311 311 311 310
299 299 302 307 308 309 310 310 309 309 310 311 310 311 310 309 310 310 310 309 309 309 308 308 304 301 299 304 306 304 308 307 307 308 308 308 309 308 306 307 309 310 310 311 311
Wind_Speed
34 33 29 27 37 36 33 27 26 24 30 29 26 24 22 21 16 17 18 17 20 10 12 10 14 2 4 4 4 1 3 2 4 7 6 14 5 7 10 13 7 6 15 19 29
33 33 31 28 31 39 34 31 29 24 23 24 26 25 20 17 16 19 17 18 22 11 12 14 13 12 4 3 5 3 3 3 4 11 8 14 14 12 8 14 8 15 18 29 32
20 32 33 30 28 35 37 32 29 28 27 28 27 23 20 17 12 15 19 17 18 18 10 15 13 9 5 3 4 6 4 4 6 11 28 19 14 9 19 2 13 24 33 32 33
38 26 33 32 28 30 36 33 31 28 30 31 26 21 19 18 8 8 16 19 19 16 16 15 16 14 3 3 4 2 1 2 3 5 23 15 17 8 18 7 17 19 24 29 34
29 28 31 33 29 26 32 34 34 30 31 30 27 22 20 19 7 5 15 22 20 18 18 16 15 12 6 4 2 2 2 4 2 7 19 18 11 7 11 11 19 22 22 22 29
30 30 27 35 31 25 29 33 32 32 32 32 26 25 23 9 12 6 14 23 22 21 19 17 13 10 11 3 6 2 4 4 4 4 8 8 3 8 12 16 21 26 22 20 21
33 36 40 34 32 25 26 33 31 32 32 36 26 26 19 18 11 10 9 21 24 21 19 18 10 10 5 3 6 12 5 2 2 3 4 8 2 4 14 18 23 26 20 19 18
37 36 43 30 34 27 25 28 28 28 29 32 27 12 6 18 9 12 12 20 21 19 16 17 11 13 4 6 4 6 6 3 2 6 1 4 5 10 17 20 19 22 22 21 19
35 40 42 35 35 30 28 25 23 29 25 23 29 13 5 10 18 9 16 20 22 21 16 19 13 6 6 6 3 2 4 3 1 6 3 3 6 3 21 20 19 20 22 23 20
34 37 34 34 36 34 30 26 23 23 24 21 15 12 17 11 18 17 16 19 22 23 14 11 6 4 2 3 6 4 4 3 6 7 4 4 5 2 14 17 19 20 22 24 24
35 37 39 39 39 41 37 35 29 13 33 13 25 7 10 13 12 18 21 23 14 17 6 7 5 6 7 6 5 5 5 4 2 2 4 6 5 9 12 13 14 18 19 23 26
36 43 40 44 44 46 47 41 41 8 15 3 27 7 26 27 9 20 23 12 10 6 9 5 5 8 9 9 8 4 3 3 2 2 3 3 10 9 7 14 21 21 19 22 23
50 47 45 51 51 49 46 42 24 33 10 3 22 13 21 23 9 25 31 10 7 7 7 9 10 12 10 6 6 5 5 5 6 3 1 1 6 6 8 20 17 20 20 21 26
53 48 48 52 53 50 42 40 27 18 4 4 6 10 13 16 6 25 32 13 5 13 9 6 7 14 7 7 7 6 4 7 9 5 4 3 5 5 7 11 11 26 27 24 28
52 49 51 58 46 52 47 38 38 10 7 14 5 10 20 11 21 17 31 7 8 6 7 7 10 9 5 7 5 5 9 8 4 4 3 2 1 7 2 6 9 22 31 29 24
51 53 53 57 39 50 45 44 29 3 6 9 11 10 10 8 5 13 15 9 6 6 5 3 1 5 7 4 7 8 8 8 5 3 1 6 6 5 4 7 5 17 32 30 25
47 47 59 56 42 53 42 34 5 7 9 9 9 15 22 7 7 6 11 8 7 7 6 2 2 2 5 8 4 7 7 3 2 1 5 1 3 8 5 5 7 12 23 26 27
45 52 63 43 53 54 41 15 7 12 15 7 11 15 13 16 2 9 12 12 6 5 5 6 3 5 3 7 8 9 8 6 6 4 5 2 6 6 6 6 8 9 16 24 25
47 58 56 43 53 60 37 17 14 20 12 11 15 20 6 13 9 6 12 21 11 8 7 5 1 1 4 2 11 6 5 6 7 3 3 4 6 8 5 7 4 6 16 21 21
54 50 44 53 65 61 18 14 6 14 12 18 8 12 16 23 8 12 18 17 11 9 4 5 5 2 1 3 0 6 8 3 3 5 3 4 5 6 5 9 7 10 19 19 18
48 25 43 58 66 46 20 14 8 23 24 12 7 10 10 16 11 14 20 4 16 17 8 5 4 2 4 6 8 3 4 3 5 6 5 1 6 7 12 10 10 18 25 26 24
31 7 53 60 16 13 15 9 20 11 26 5 6 5 15 20 9 14 12 7 27 23 9 0 5 4 6 3 2 3 7 6 5 4 2 4 7 0 1 1 15 14 21 23 20
7 5 48 63 10 15 9 5 13 8 19 9 5 5 12 15 7 6 6 9 28 18 16 7 0 4 4 3 3 4 3 6 5 3 6 4 11 3 3 3 2 8 12 18 21
9 4 5 39 16 22 19 19 6 9 7 6 6 7 13 12 1 11 9 2 25 17 22 18 4 8 9 6 7 8 8 7 6 3 6 11 18 4 5 6 5 8 12 16 21
3 1 3 11 12 21 17 19 17 8 7 16 4 12 14 7 8 9 5 4 5 20 9 7 7 3 2 6 6 6 9 11 10 23 10 26 13 12 7 8 12 12 14 19 23
3 3 6 9 23 24 21 25 28 14 13 17 8 8 6 7 11 8 8 4 7 2 6 4 2 4 2 3 4 4 9 19 24 21 14 7 16 7 15 18 15 19 23 26 26
3 5 4 12 13 19 22 27 30 12 3 15 12 9 8 7 13 17 12 12 15 18 7 9 6 4 5 2 6 5 21 9 12 14 20 17 32 5 4 7 17 22 26 28 27
Wind_Direction
220 221 223 219 209 212 222 225 207 211 211 205 209 207 207 197 201 206 211 211 197 182 184 193 187 109 211 179 180 142 63 267 234 160 182 153 118 95 128 131 92 100 161 168 160
210 218 218 223 212 209 214 220 221 216 214 197 196 189 178 190 201 213 193 193 199 187 183 181 182 181 235 202 177 124 117 246 293 154 169 156 146 133 126 119 88 111 137 154 162
240 209 218 216 217 209 208 212 214 216 206 188 183 176 185 183 193 226 192 188 187 193 167 171 161 167 190 148 211 165 193 282 350 149 151 145 154 149 139 157 172 150 154 163 171
232 238 213 214 217 212 208 205 209 206 201 186 179 172 175 175 171 204 195 197 193 193 194 174 169 165 175 163 226 202 188 35 359 91 151 146 151 159 164 182 188 179 169 171 180
220 233 213 212 208 218 208 203 204 204 203 185 181 163 177 191 206 173 183 179 181 183 187 180 172 165 177 190 201 188 191 81 69 72 145 140 146 151 171 134 171 172 176 180 185
221 203 223 205 207 210 205 197 203 197 196 182 172 179 181 206 201 168 180 182 184 185 185 181 177 164 178 221 158 4 120 112 129 70 94 120 117 160 173 149 158 177 183 189 189
220 217 210 214 201 197 202 197 199 192 196 191 169 174 193 195 205 190 170 187 184 188 183 183 164 180 167 133 160 147 89 34 86 120 95 114 44 219 186 168 161 177 190 198 199
215 219 212 214 193 185 190 194 194 181 183 185 163 180 202 209 186 189 179 171 181 178 182 181 189 189 161 140 108 134 96 145 237 152 133 134 240 218 179 177 177 183 192 203 205
216 218 197 207 185 176 178 184 187 181 166 164 169 176 257 205 212 190 187 175 172 176 170 175 186 155 141 122 60 68 159 168 169 201 129 152 240 235 186 191 190 197 201 205 205
210 210 195 196 178 167 168 169 169 159 171 171 185 134 231 210 198 196 178 170 167 171 141 156 153 112 91 104 186 149 154 176 162 214 160 159 254 226 183 192 194 204 208 208 205
225 211 195 183 177 168 158 147 136 149 165 178 182 175 209 174 189 185 172 161 164 157 139 174 115 170 189 171 204 152 185 175 11 324 128 194 237 242 218 217 216 218 214 213 211
211 201 192 187 177 174 168 161 162 194 172 92 174 111 153 168 156 176 167 153 154 162 133 82 177 198 186 184 213 191 159 214 43 328 120 177 249 242 217 224 218 218 219 213 205
205 202 194 184 179 178 180 174 155 154 143 206 181 147 159 155 153 171 171 160 150 165 166 151 189 175 178 203 167 183 171 181 153 187 75 72 292 235 238 230 234 231 219 216 214
200 199 190 178 179 179 172 168 146 163 97 197 178 209 164 148 130 179 173 156 172 188 140 177 193 177 164 195 153 185 180 141 136 124 212 132 268 267 228 227 202 219 216 218 216
193 188 187 182 177 176 166 161 151 181 145 152 193 177 167 164 140 184 184 169 182 169 125 221 160 153 150 175 149 187 141 140 126 103 108 209 123 270 100 226 221 219 218 219 219
201 193 187 187 177 171 162 158 164 111 199 190 151 162 149 176 142 145 174 173 181 137 59 167 308 169 166 123 147 144 86 42 62 86 286 226 166 279 197 210 232 223 222 219 205
200 200 189 181 163 168 160 149 118 190 147 175 180 168 173 161 127 175 170 168 164 138 145 79 28 313 128 91 19 111 100 41 30 324 223 338 209 239 237 201 215 232 227 216 215
197 191 190 174 173 167 165 154 158 187 174 144 151 151 183 144 40 157 151 186 247 142 131 151 187 192 188 151 165 161 158 154 177 201 217 305 232 237 244 223 220 238 230 201 199
195 192 189 171 177 164 161 175 196 170 164 145 132 156 174 180 128 138 182 192 185 182 145 133 121 70 56 90 153 203 186 163 100 21 82 225 287 298 217 244 204 165 175 186 201
187 182 188 177 173 162 167 187 172 162 136 139 155 180 178 179 139 168 177 197 189 183 140 180 118 347 233 134 4 187 152 134 358 129 251 274 258 227 249 243 209 206 200 199 205
176 178 188 164 159 161 187 186 160 172 156 152 150 171 173 174 177 183 182 207 183 191 146 131 105 261 148 211 164 125 179 163 131 156 171 202 256 217 203 207 203 215 213 208 210
177 173 175 161 152 179 186 172 175 180 165 172 121 123 172 173 160 184 186 177 186 179 159 79 116 148 199 220 235 161 183 158 177 227 186 162 252 212 149 204 218 231 222 217 218
90 133 168 165 164 181 151 202 191 149 174 159 141 163 157 172 167 163 168 197 172 171 176 177 138 94 37 347 336 201 188 192 116 76 211 144 252 340 109 65 195 222 215 211 209
145 136 145 174 192 167 165 185 157 148 170 161 135 120 139 172 125 179 160 102 176 177 179 153 154 167 186 182 139 181 188 192 169 126 202 222 238 192 202 170 187 200 206 206 213
124 89 157 172 174 168 169 174 186 166 165 175 153 163 156 152 159 169 142 107 68 169 142 128 195 146 82 134 142 169 181 177 198 223 188 241 257 212 207 205 212 206 202 205 214
129 170 124 154 158 168 173 191 191 185 160 186 149 171 140 143 180 155 121 125 160 46 130 138 225 115 328 214 149 166 199 201 210 217 239 235 274 137 216 220 210 209 206 210 219
66 98 131 158 159 167 190 181 194 160 174 182 151 146 168 163 131 162 162 154 167 165 141 153 140 104 224 146 93 332 222 177 220 219 217 226 240 136 196 189 221 222 220 224 230